Flag for Colombia Weather past 2 weeks in Buenaventura, Colombia

Now
79 °F

Scattered clouds.


Feels Like: 81 °F
Forecast: N/A
Wind: 8 mph from Northwest

Location: Cali / Alfonso Bonillaaragon

Current Time: May 24, 2015 at 6:34:06 PM

Latest Report: May 24, 2015 at 6:00 PM


Visibility: N/A

Pressure: 29.92 "Hg

Humidity: 61%

Dew point: 64 °F

Location of BuenaventuraLocation

Historic Weather in Buenaventura — Graph

°F

Buenaventura temperature yesterday

Maximum temperature yesterday: 88 °F (at 2:00 PM)
Minimum temperature yesterday: 66 °F (at 4:00 AM)
Average temperature yesterday: 76 °F

Past Weeks' High & Low Weather Summary

 TemperatureHumidityPressure
High90 °F (May 10, 1:00 PM)100% (May 19, 5:00 AM)30.34 "Hg (May 19, 5:00 AM)
Low63 °F (May 13, 9:00 PM)46% (May 12, 3:00 PM)29.81 "Hg (May 10, 3:00 PM)
Average76 °F74%29.96 "Hg
* Reported May 9 5:00 PM — May 24 5:00 PM, Buenaventura, Weather by CustomWeather, © 2015

Note: Actual official high and low records may vary slightly from our data, if they occured in-between our weather recording intervals... More about our weather records

Advertising

Buenaventura weather history for previous 24 hours

 ConditionsComfort  
Time TempWeatherWind HumidityBarometerVisibility
5:00 PM
Sun, May 24
82 °FBroken clouds.10 mph58%29.90 "HgN/A
4:00 PM84 °FScattered clouds.14 mph55%29.90 "HgN/A
3:00 PM84 °FBroken clouds.14 mph55%29.90 "HgN/A
2:00 PM82 °FPartly sunny.8 mph58%29.93 "HgN/A
1:00 PM84 °FScattered showers. Scattered clouds.15 mph62%29.96 "HgN/A
12:00 PM84 °FScattered clouds.7 mph55%29.98 "HgN/A
11:00 AM82 °FScattered clouds.No wind62%30.00 "HgN/A
10:00 AM79 °FBroken clouds.3 mph70%30.02 "HgN/A
9:00 AM63 °FMild.N/A83%30.34 "HgN/A
8:00 AM72 °FScattered clouds.3 mph88%30.03 "HgN/A
7:00 AM70 °FBroken clouds.3 mph94%30.01 "HgN/A
6:00 AM70 °FScattered showers. Broken clouds.No wind94%29.99 "HgN/A
5:00 AM72 °FScattered showers. Partly cloudy.2 mph94%29.99 "HgN/A
4:00 AM72 °FPartly cloudy.No wind94%29.98 "HgN/A
3:00 AM72 °FPartly cloudy.No wind88%29.97 "HgN/A
2:00 AM72 °FPartly cloudy.No wind88%29.97 "HgN/A
1:00 AM72 °FPartly cloudy.5 mph88%29.98 "HgN/A
12:00 AM72 °FPartly cloudy.6 mph88%29.99 "HgN/A
11:00 PM
Sat, May 23
73 °FPartly cloudy.7 mph78%30.00 "HgN/A
10:00 PM72 °FPassing clouds.9 mph83%29.99 "HgN/A
9:00 PM75 °FPassing clouds.6 mph74%29.97 "HgN/A
8:00 PM75 °FPassing clouds.5 mph74%29.96 "HgN/A
7:00 PM79 °FPassing clouds.9 mph65%29.93 "HgN/A
6:00 PM81 °FPartly sunny.9 mph58%29.91 "HgN/A
Weather by CustomWeather, © 2015

See weather overviewHow to use our weather pages